sat.trackr.live / text

‹ back to catalog

UNKNOWN

NORAD 81674

UNKNOWN UNKNOWN UNKNOWN

§ Identity

Operator
Country
Launch date
Launch site
Launch vehicle
Mass (kg)
RCS (m²)

External: N2YO · Heavens-Above

§ Orbital elements

Epoch: 2026-05-23T18:17:17.556000Z

Period
102.11 min
Inclination
66.8227°
Eccentricity
0.0019541
Mean motion
14.10305347 rev/d
Perigee alt
844.2 km
Apogee alt
872.5 km
Semi-major
7,236.5 km
B*
2.7637e-4
RAAN
316.1491°
Arg perigee
110.0276°
Mean anomaly
269.9924°
Rev number
63,656

§ Raw data

UNKNOWN1 81674U          26143.76200875  .00000411  00000+0  27637-3 0  99902 81674  66.8227 316.1491 0019541 110.0276 269.9924 14.10305347636566

JSON: /api/v1/satellites/81674 · /tle

For live sub-satellite position, see the globe view (requires WebGL).

§ Visibility from observer

Set your observer location to see the next 7 days of passes ≥ 10°. The values pass through the URL so the page stays shareable.

No JS? Fill the form by hand. The geolocation button needs JavaScript.